Weather History for Mexico City Airport, Mexico

Change the Weather History Date:

Wednesday, November 2, 2011

  Actual Average Record
Temperature  
Mean Temperature 60 °F -  
Max Temperature 77 °F 70 °F 77 °F (2000)
Min Temperature 42 °F 44 °F 39 °F (2005)
Degree Days  
Heating Degree Days 6    
Growing Degree Days 10 (Base 50)    
Moisture  
Dew Point 38 °F    
Average Humidity 52    
Maximum Humidity 87    
Minimum Humidity 14    
Precipitation  
Precipitation 0.00 in - - ()
Sea Level Pressure  
Sea Level Pressure 30.24 in    
Wind  
Wind Speed 4 mph ()    
Max Wind Speed 9 mph    
Max Gust Speed -    
Visibility 6.9 miles    
Events      
Averages and records for this station are not official NWS values.
T = Trace of Precipitation, MM = Missing Value Source: Averaged Metar Reports

Daily Weather History Graph

Daily Weather History Graph

Search for Another Location

Airport:

Trip Planner

Search our weather history database for the weather conditions in past years. The results will help you decide how hot, cold, wet, or windy it might be!

Date:

Astronomy

Nov. 02, 2011 Rise Set
Actual Time 6:37 AM CST 6:02 PM CST
Civil Twilight 6:14 AM CST 6:24 PM CST
Nautical Twilight 5:48 AM CST 6:50 PM CST
Astronomical Twilight 5:22 AM CST 7:16 PM CST
Moon 12:59 PM CST (11/2) No Moon Set
Length of Visible Light 12h 09m
Length of Day
11h 24m
Waxing Crescent, 51% of the Moon is Illuminated
Nov 2
Waxing Crescent
Nov 10
Full
Nov 18
Last Quarter
Nov 25
New
Dec 2
First Quarter

Hourly Weather History & Observations

Time (CST) Temp. Windchill Dew Point Humidity Pressure Visibility Wind Dir Wind Speed Gust Speed Precip Events Conditions
12:54 AM 51.8 °F - 42.8 °F 71% 30.32 in 12.0 mi East 4.6 mph - N/A   Clear
12:55 AM 51.8 °F - 42.8 °F 71% 30.32 in 12.0 mi ESE 4.6 mph - N/A   Clear
1:45 AM 50.0 °F - 42.8 °F 76% 30.31 in 10.0 mi ESE 4.6 mph - N/A   Clear
2:45 AM 48.2 °F - 42.8 °F 82% 29.86 in 8.0 mi East 6.9 mph - N/A   Clear
3:45 AM 46.4 °F 43.5 °F 42.8 °F 87% 30.32 in 7.0 mi ENE 5.8 mph - N/A   Clear
4:45 AM 46.4 °F 43.5 °F 42.8 °F 87% 30.32 in 6.0 mi ENE 5.8 mph - N/A   Clear
5:45 AM 44.6 °F - 41.0 °F 87% 29.94 in 6.0 mi Calm Calm - N/A   Clear
6:20 AM 42.8 °F 41.1 °F 37.4 °F 81% 30.35 in 5.0 mi ENE 3.5 mph - N/A   Clear
6:45 AM 42.8 °F 41.1 °F 37.4 °F 81% 30.35 in 5.0 mi East 3.5 mph - N/A   Clear
7:20 AM 44.6 °F 42.2 °F 39.2 °F 81% 30.36 in 5.0 mi ENE 4.6 mph - N/A   Clear
7:42 AM 48.2 °F - 41.0 °F 76% 30.37 in 5.0 mi NE 4.6 mph - N/A   Clear
7:44 AM 48.2 °F - 41.0 °F 76% 30.37 in 5.0 mi NE 4.6 mph - N/A   Clear
8:20 AM 50.0 °F - 42.8 °F 76% 30.38 in 5.0 mi NE 4.6 mph - N/A   Clear
8:43 AM 51.8 °F - 42.8 °F 71% 29.98 in 4.0 mi NNE 4.6 mph - N/A   Clear
9:18 AM 55.4 °F - 42.8 °F 63% 30.39 in 4.0 mi Calm Calm - N/A   Clear
9:20 AM 55.4 °F - 42.8 °F 63% 30.39 in 4.0 mi Calm Calm - N/A   Clear
9:33 AM 59.0 °F - 42.8 °F 55% 30.39 in 4.0 mi Calm Calm - N/A   Clear
9:46 AM 59.0 °F - 42.8 °F 55% 30.39 in 4.0 mi North 4.6 mph - N/A   Clear
10:28 AM 62.6 °F - 41.0 °F 45% 30.39 in 4.0 mi Calm Calm - N/A   Clear
10:45 AM 64.4 °F - 39.2 °F 40% 30.37 in 4.0 mi ENE 6.9 mph - N/A   Clear
11:39 AM 68.0 °F - 37.4 °F 33% 30.35 in 4.0 mi NE 9.2 mph - N/A   Clear
11:44 AM 68.0 °F - 37.4 °F 33% 29.89 in 4.0 mi NE 9.2 mph - N/A   Clear
12:37 PM 71.6 °F - 26.6 °F 19% 30.32 in 6.0 mi East 5.8 mph - N/A   Scattered Clouds
12:43 PM 71.6 °F - 26.6 °F 19% 30.32 in 6.0 mi NE 5.8 mph - N/A   Scattered Clouds
1:26 PM 75.2 °F - 24.8 °F 15% 30.29 in 6.0 mi NE 4.6 mph - N/A   Scattered Clouds
1:44 PM 75.2 °F - 24.8 °F 15% 30.28 in 7.0 mi NNE 5.8 mph - N/A   Scattered Clouds
2:49 PM 75.2 °F - 26.6 °F 17% 29.82 in 6.0 mi ENE 3.5 mph - N/A   Partly Cloudy
3:55 PM 77.0 °F - 24.8 °F 14% 30.24 in 6.0 mi ENE 5.8 mph - N/A   Partly Cloudy
4:47 PM 75.2 °F - 23.0 °F 14% 30.24 in 6.0 mi North 4.6 mph - N/A   Partly Cloudy
5:46 PM 73.4 °F - 37.4 °F 27% 29.83 in 8.0 mi SE 5.8 mph - N/A   Scattered Clouds
6:41 PM 69.8 °F - 42.8 °F 38% 30.27 in 10.0 mi SSE 6.9 mph - N/A   Partly Cloudy
6:43 PM 68.0 °F - 42.8 °F 40% 30.27 in 10.0 mi SSE 6.9 mph - N/A   Partly Cloudy
7:42 PM 64.4 °F - 44.6 °F 49% 30.32 in 10.0 mi NE 9.2 mph - N/A   Clear
7:46 PM 64.4 °F - 44.6 °F 49% 30.32 in 10.0 mi NE 9.2 mph - N/A   Clear
8:43 PM 64.4 °F - 39.2 °F 40% 29.94 in 10.0 mi NNE 6.9 mph - N/A   Clear
9:48 PM 62.6 °F - 37.4 °F 39% 30.37 in 10.0 mi North 6.9 mph - N/A   Clear
10:53 PM 60.8 °F - 37.4 °F 42% 30.38 in 12.0 mi NNW 3.5 mph - N/A   Clear
11:49 PM 59.0 °F - 37.4 °F 45% 29.89 in 12.0 mi WNW 5.8 mph - N/A   Clear